Погода в Горняке

Россия / Удмуртская Республика     56˚27′03″N   52˚25′38″E
темп.,
°C
ветер,
м/с
пор.,
м/с
влажн.,
%
обл.,
%
осадки,
мм/ч
давл.,
гПа
погр.,
м
17 января, вс
вс1701:00−12˚юз6139099 0.1 998642
04:00−13˚юз51192100 0.1 998503
07:00−14˚юз51193100 0.1 998507
10:00−14˚зюз51191100 0.3 1001475
13:00−14˚з5991100 0.0 1004528
16:00−15˚з4894100 0.1 1008356
19:00−18˚зсз369899 0.1 1012160
22:00−22˚сз339990 0.1 101560
18 января, пн
пн1801:00−24˚з12984 0.0 101720
04:00−25˚зсз129811 0.0 101820
07:00−25˚юз22974 0.0 101920
10:00−24˚юз129721 0.0 102120
13:00−20˚зюз129225 0.0 1020181
16:00−22˚юз229623 0.0 102020
19:00−25˚зюз11985 0.0 102020
22:00−24˚сз119751 0.0 102020
19 января, вт
вт1901:00−24˚всв1197100 0.0 102020
04:00−24˚всв1297100 0.0 101920
07:00−22˚всв2597100 0.0 1018154
10:00−22˚св3595100 0.0 1017186
13:00−19˚св3692100 0.0 1015236
16:00−17˚св4793100 0.0 1013257
19:00−17˚св4994100 0.1 1012348
22:00−17˚св3696100 0.9 1010309
20 января, ср
ср2001:00−17˚ссв2597100 0.8 1010228
04:00−17˚сз1297100 1.3 100972
07:00−17˚з2397100 0.6 1009107
10:00−17˚зюз2496100 1.0 1010222
13:00−15˚юз2494100 0.4 1011404
16:00−16˚зюз2595100 0.7 1011357
19:00−18˚з249898 0.1 1013130
22:00−21˚з359894 0.2 1014141
21 января, чт
чт2101:00−25˚з339884 0.0 101468
04:00−22˚з379892 0.1 1014217
07:00−21˚з359991 0.1 1014123
10:00−20˚з269991 0.1 1015142
13:00−16˚з3694100 0.1 1015286
16:00−15˚з3795100 0.1 1015344
19:00−16˚з379697 0.1 1016207
22:00−16˚з249798 0.1 1016119